Kokomo, IN

12:24 AM EDT on September 20, 2017 (GMT -0400)
Kokomo Municipal

Weather History for KOKK - April, 2013

Change the Weather History Date:

Tuesday, April 2, 2013

  Actual Average (KGUS) Record (KGUS)
Temperature  
Mean Temperature 34 °F -  
Max Temperature 44 °F 55 °F 75 °F (2003)
Min Temperature 24 °F 36 °F 22 °F (2013)
Degree Days  
Heating Degree Days 31    
Moisture  
Dew Point 18 °F    
Average Humidity 56    
Maximum Humidity 86    
Minimum Humidity 31    
Precipitation  
Precipitation 0.00 in - - ()
Sea Level Pressure  
Sea Level Pressure 30.21 in    
Wind  
Wind Speed 7 mph (NW)    
Max Wind Speed 20 mph    
Max Gust Speed 25 mph    
Visibility 10 miles    
Events      
Averages and records for this station are not official NWS values.
T = Trace of Precipitation, MM = Missing Value Source: NWS Daily Summary

Daily Weather History Graph

Daily Weather History Graph

Search for Another Location

Airport or City:

Trip Planner

Search our weather history database for the weather conditions in past years. The results will help you decide how hot, cold, wet, or windy it might be!

Date:

Astronomy

Apr. 02, 2013 Rise Set
Actual Time 6:25 AM CDT 7:10 PM CDT
Civil Twilight 5:58 AM CDT 7:37 PM CDT
Nautical Twilight 5:25 AM CDT 8:10 PM CDT
Astronomical Twilight 4:52 AM CDT 8:44 PM CDT
Moon 1:15 AM CDT (4/2) 11:15 AM CDT (4/2)
Length of Visible Light 13h 39m
Length of Day
12h 44m
Waning Gibbous, 55% of the Moon is Illuminated
Apr 2
Waning Gibbous
Apr 2
Last Quarter
Apr 10
New
Apr 18
First Quarter
Apr 25
Full

Hourly Weather History & Observations

Time (CDT) Temp. Windchill Dew Point Humidity Pressure Visibility Wind Dir Wind Speed Gust Speed Precip Events Conditions
12:15 AM 24.8 °F - 21.2 °F 86% 30.14 in 10.0 mi Calm Calm - N/A   Clear
12:35 AM 26.6 °F - 19.4 °F 74% 30.14 in 10.0 mi Calm Calm - N/A   Clear
12:55 AM 26.6 °F - 23.0 °F 86% 30.14 in 10.0 mi Calm Calm - N/A   Clear
1:15 AM 24.8 °F 17.9 °F 17.6 °F 74% 30.14 in 10.0 mi WSW 5.8 mph - N/A   Clear
1:35 AM 26.6 °F 20.0 °F 19.4 °F 74% 30.15 in 10.0 mi West 5.8 mph - N/A   Clear
1:55 AM 24.8 °F 16.9 °F 17.6 °F 74% 30.15 in 10.0 mi West 6.9 mph - N/A   Clear
2:15 AM 26.6 °F 18.2 °F 21.2 °F 80% 30.14 in 10.0 mi West 8.1 mph - N/A   Clear
2:35 AM 26.6 °F 18.2 °F 19.4 °F 74% 30.15 in 10.0 mi WNW 8.1 mph - N/A   Clear
2:55 AM 26.6 °F 18.2 °F 19.4 °F 74% 30.14 in 10.0 mi WNW 8.1 mph - N/A   Clear
3:15 AM 26.6 °F 18.2 °F 17.6 °F 69% 30.15 in 10.0 mi NW 8.1 mph - N/A   Clear
3:35 AM 26.6 °F 18.2 °F 17.6 °F 69% 30.15 in 10.0 mi NW 8.1 mph - N/A   Clear
3:55 AM 26.6 °F 19.1 °F 19.4 °F 74% 30.15 in 10.0 mi NW 6.9 mph - N/A   Clear
4:15 AM 24.8 °F 17.9 °F 17.6 °F 74% 30.16 in 10.0 mi WNW 5.8 mph - N/A   Clear
4:35 AM 24.8 °F 17.9 °F 17.6 °F 74% 30.17 in 10.0 mi WNW 5.8 mph - N/A   Clear
4:55 AM 24.8 °F 17.9 °F 19.4 °F 80% 30.18 in 10.0 mi WNW 5.8 mph - N/A   Clear
5:15 AM 24.8 °F 19.1 °F 17.6 °F 74% 30.18 in 10.0 mi West 4.6 mph - N/A   Clear
5:35 AM 24.8 °F 17.9 °F 19.4 °F 80% 30.19 in 10.0 mi WNW 5.8 mph - N/A   Clear
5:55 AM 24.8 °F 20.5 °F 17.6 °F 74% 30.19 in 10.0 mi NW 3.5 mph - N/A   Clear
6:15 AM 24.8 °F 20.5 °F 19.4 °F 80% 30.20 in 10.0 mi West 3.5 mph - N/A   Clear
6:35 AM 24.8 °F 20.5 °F 19.4 °F 80% 30.20 in 10.0 mi West 3.5 mph - N/A   Clear
6:55 AM 24.8 °F 19.1 °F 17.6 °F 74% 30.21 in 10.0 mi WNW 4.6 mph - N/A   Clear
7:15 AM 26.6 °F 22.6 °F 21.2 °F 80% 30.22 in 10.0 mi WNW 3.5 mph - N/A   Clear
7:35 AM 28.4 °F 22.2 °F 21.2 °F 74% 30.23 in 10.0 mi WNW 5.8 mph - N/A   Clear
7:55 AM 28.4 °F 22.2 °F 21.2 °F 74% 30.23 in 10.0 mi WNW 5.8 mph - N/A   Clear
8:15 AM 30.2 °F 21.3 °F 19.4 °F 64% 30.24 in 10.0 mi NW 10.4 mph - N/A   Clear
8:35 AM 30.2 °F 21.9 °F 19.4 °F 64% 30.24 in 10.0 mi NW 9.2 mph - N/A   Clear
8:55 AM 32.0 °F 23.6 °F 21.2 °F 64% 30.24 in 10.0 mi NNW 10.4 mph - N/A   Clear
9:35 AM 33.8 °F 26.4 °F 19.4 °F 56% 30.25 in 10.0 mi NNW 9.2 mph - N/A   Clear
9:55 AM 35.6 °F 29.9 °F 19.4 °F 52% 30.25 in 10.0 mi NNW 6.9 mph - N/A   Clear
10:15 AM 35.6 °F 28.6 °F 19.4 °F 52% 30.25 in 10.0 mi NNW 9.2 mph - N/A   Clear
10:35 AM 35.6 °F 28.0 °F 19.4 °F 52% 30.26 in 10.0 mi WNW 10.4 mph - N/A   Clear
10:55 AM 35.6 °F 27.1 °F 15.8 °F 44% 30.26 in 10.0 mi NW 12.7 mph 17.3 mph N/A   Clear
11:15 AM 37.4 °F 30.8 °F 17.6 °F 45% 30.26 in 10.0 mi West 9.2 mph - N/A   Clear
11:35 AM 37.4 °F 30.3 °F 17.6 °F 45% 30.25 in 10.0 mi NNW 10.4 mph 16.1 mph N/A   Clear
11:55 AM 37.4 °F 28.5 °F 21.2 °F 52% 30.25 in 10.0 mi WNW 15.0 mph 19.6 mph N/A   Partly Cloudy
12:15 PM 39.2 °F 31.6 °F 19.4 °F 45% 30.25 in 10.0 mi West 12.7 mph 17.3 mph N/A   Clear
12:35 PM 39.2 °F 32.0 °F 19.4 °F 45% 30.24 in 10.0 mi West 11.5 mph 20.7 mph N/A   Clear
12:55 PM 39.2 °F 31.6 °F 19.4 °F 45% 30.23 in 10.0 mi WNW 12.7 mph 20.7 mph N/A   Clear
1:15 PM 41.0 °F 33.9 °F 19.4 °F 42% 30.23 in 10.0 mi WNW 12.7 mph 21.9 mph N/A   Clear
1:35 PM 41.0 °F 34.3 °F 19.4 °F 42% 30.22 in 10.0 mi NW 11.5 mph 18.4 mph N/A   Clear
1:55 PM 42.8 °F 36.2 °F 19.4 °F 39% 30.22 in 10.0 mi West 12.7 mph 19.6 mph N/A   Partly Cloudy
2:15 PM 42.8 °F 36.2 °F 19.4 °F 39% 30.21 in 10.0 mi WNW 12.7 mph - N/A   Clear
2:35 PM 42.8 °F 35.4 °F 17.6 °F 36% 30.20 in 10.0 mi WNW 15.0 mph 20.7 mph N/A   Clear
2:55 PM 42.8 °F 35.8 °F 19.4 °F 39% 30.20 in 10.0 mi NNW 13.8 mph 25.3 mph N/A   Clear
3:15 PM 44.6 °F 40.7 °F 17.6 °F 34% 30.19 in 10.0 mi NW 6.9 mph 21.9 mph N/A   Clear
3:35 PM 44.6 °F 36.6 °F 17.6 °F 34% 30.19 in 10.0 mi West 19.6 mph - N/A   Clear
3:55 PM 44.6 °F 36.9 °F 19.4 °F 37% 30.18 in 10.0 mi NW 18.4 mph 23.0 mph N/A   Partly Cloudy
4:15 PM 42.8 °F 37.5 °F 15.8 °F 34% 30.19 in 10.0 mi WNW 9.2 mph 24.2 mph N/A   Partly Cloudy
4:35 PM 42.8 °F 35.8 °F 15.8 °F 34% 30.19 in 10.0 mi NW 13.8 mph - N/A   Partly Cloudy
4:55 PM 44.6 °F 37.2 °F 17.6 °F 34% 30.19 in 10.0 mi WNW 17.3 mph - N/A   Scattered Clouds
5:15 PM 44.6 °F 37.8 °F 15.8 °F 31% 30.19 in 10.0 mi NW 15.0 mph 18.4 mph N/A   Partly Cloudy
5:35 PM 42.8 °F 35.8 °F 15.8 °F 34% 30.19 in 10.0 mi West 13.8 mph - N/A   Partly Cloudy
5:55 PM 42.8 °F 36.2 °F 17.6 °F 36% 30.20 in 10.0 mi WNW 12.7 mph - N/A   Partly Cloudy
6:15 PM 42.8 °F 35.8 °F 15.8 °F 34% 30.20 in 10.0 mi WNW 13.8 mph - N/A   Partly Cloudy
6:35 PM 42.8 °F 36.6 °F 15.8 °F 34% 30.20 in 10.0 mi WNW 11.5 mph - N/A   Partly Cloudy
6:55 PM 41.0 °F 33.9 °F 15.8 °F 36% 30.20 in 10.0 mi NW 12.7 mph - N/A   Scattered Clouds
7:15 PM 39.2 °F 32.5 °F 14.0 °F 36% 30.20 in 10.0 mi NW 10.4 mph - N/A   Partly Cloudy
7:35 PM 39.2 °F 33.0 °F 14.0 °F 36% 30.21 in 10.0 mi NW 9.2 mph - N/A   Clear
7:55 PM 37.4 °F 31.4 °F 15.8 °F 41% 30.22 in 10.0 mi NW 8.1 mph - N/A   Clear
8:15 PM 35.6 °F 30.7 °F 15.8 °F 44% 30.23 in 10.0 mi North 5.8 mph - N/A   Clear
8:35 PM 33.8 °F 27.0 °F 15.8 °F 48% 30.23 in 10.0 mi North 8.1 mph - N/A   Clear
8:55 PM 33.8 °F 28.6 °F 15.8 °F 48% 30.24 in 10.0 mi NNE 5.8 mph - N/A   Clear
9:15 PM 30.2 °F 24.3 °F 17.6 °F 60% 30.25 in 10.0 mi NNE 5.8 mph - N/A   Clear
9:35 PM 30.2 °F 25.4 °F 15.8 °F 55% 30.26 in 10.0 mi NNE 4.6 mph - N/A   Clear
9:55 PM 30.2 °F 23.4 °F 14.0 °F 51% 30.27 in 10.0 mi NNE 6.9 mph - N/A   Clear
10:15 PM 30.2 °F 24.3 °F 15.8 °F 55% 30.27 in 10.0 mi NNE 5.8 mph - N/A   Clear
10:35 PM 30.2 °F 24.3 °F 15.8 °F 55% 30.27 in 10.0 mi NNE 5.8 mph - N/A   Clear
10:55 PM 28.4 °F 23.3 °F 15.8 °F 59% 30.27 in 10.0 mi NE 4.6 mph - N/A   Clear
11:15 PM 28.4 °F 24.6 °F 15.8 °F 59% 30.27 in 10.0 mi NE 3.5 mph - N/A   Clear
11:35 PM 26.6 °F - 15.8 °F 64% 30.27 in 10.0 mi Calm Calm - N/A   Clear
11:55 PM 28.4 °F - 15.8 °F 59% 30.27 in 10.0 mi Calm Calm - N/A   Clear